User: anonymous   Login
Location: Fort Wayne
(41.1310°N, 85.1290°W)
Time: 10:47:09
(UTC-05:00)
Language:

Oscar 19 - Orbit

View from above orbital plane
View from above orbital plane
View from above satellite
View from above satellite

Ground track
Ground track

The orbit data is extracted from the following two-line orbital elements,

1 20442U 90005G   16040.36334486  .00000074  00000-0  42967-4 0  9997
2 20442  98.5342 337.1677 0012023 161.8021 198.3596 14.32795967360908
Epoch (UTC): 09 February 2016 08:43:12
Eccentricity: 0.0012023
inclination: 98.5342°
perigee height: 774 km
apogee height: 791 km
right ascension of ascending node: 337.1677°
argument of perigee: 161.8021°
revolutions per day: 14.32795967
mean anomaly at epoch: 198.3596°
orbit number at epoch: 36090

The dashed part of the orbit path shows where the satellite is in the earth's shadow,  

DLR